Lamar, CO

3:31 PM MST on November 16, 2019 (GMT -0700)
Lamar Municipal

Weather History for KLAA - September, 2019

Change the Weather History Date:

Sunday, September 1, 2019

  Actual Average Record
Temperature  
Mean Temperature 82 °F 72 °F  
Max Temperature 103 °F 87 °F 104 °F (2011)
Min Temperature 61 °F 57 °F 45 °F (1932)
Degree Days  
Heating Degree Days 0 0  
Month to date heating degree days 0 0  
Since 1 July heating degree days 0 5  
Cooling Degree Days 17 7  
Month to date cooling degree days 17 7  
Year to date cooling degree days 1119 996  
Growing Degree Days 32 (Base 50)    
Moisture  
Dew Point 56 °F    
Average Humidity 57    
Maximum Humidity 100    
Minimum Humidity 14    
Precipitation  
Precipitation 0.00 in 0.06 in 0.40 in (2006)
Month to date precipitation 0.00 0.06  
Year to date precipitation 7.23 12.43  
Sea Level Pressure  
Sea Level Pressure 29.95 in    
Wind  
Wind Speed 11 mph (SE)    
Max Wind Speed 24 mph    
Max Gust Speed 35 mph    
Visibility 9 miles    
Events      
T = Trace of Precipitation, MM = Missing Value Source: NWS Daily Summary

Daily Weather History Graph

Daily Weather History Graph

Search for Another Location

Airport or City:

Astronomy

Sep. 01, 2019 Rise Set
Actual Time 6:20 AM MDT 7:20 PM MDT
Civil Twilight 5:53 AM MDT 7:47 PM MDT
Nautical Twilight 5:21 AM MDT 8:19 PM MDT
Astronomical Twilight 4:47 AM MDT 8:52 PM MDT
Moon 8:51 AM MDT (9/1) 9:11 PM MDT (9/1)
Length of Visible Light 13h 54m
Length of Day
13h 00m
Waxing Crescent, 8% of the Moon is Illuminated
Sep 1
Waxing Crescent
Sep 5
First Quarter
Sep 13
Full
Sep 21
Last Quarter
Sep 28
New

Hourly Weather History & Observations

Time (MDT) Temp. Heat Index Dew Point Humidity Pressure Visibility Wind Dir Wind Speed Gust Speed Precip Events Conditions
12:53 AM 64.9 °F - 60.1 °F 84% 30.01 in 10.0 mi East 6.9 mph - N/A   Clear
1:53 AM 62.1 °F - 59.0 °F 90% 30.01 in 10.0 mi ENE 6.9 mph - N/A   Clear
2:53 AM 61.0 °F - 59.0 °F 93% 30.02 in 10.0 mi East 6.9 mph - N/A   Clear
3:53 AM 61.0 °F - 60.1 °F 97% 30.01 in 8.0 mi East 6.9 mph - N/A   Clear
4:53 AM 62.1 °F - 61.0 °F 96% 30.00 in 6.0 mi ESE 6.9 mph - N/A   Scattered Clouds
5:05 AM 63.0 °F - 62.1 °F 97% 30.14 in 7.0 mi ESE 8.1 mph - N/A   Mostly Cloudy
5:36 AM 64.0 °F - 62.1 °F 93% 30.14 in 7.0 mi ESE 5.8 mph - N/A   Mostly Cloudy
5:53 AM 64.0 °F - 63.0 °F 96% 30.00 in 7.0 mi ESE 5.8 mph - N/A   Overcast
6:35 AM 64.0 °F - 62.1 °F 93% 30.14 in 5.0 mi ESE 5.8 mph - N/A   Scattered Clouds
6:53 AM 64.0 °F - 62.1 °F 93% 30.00 in 5.0 mi ESE 6.9 mph - N/A   Clear
7:53 AM 68.0 °F - 63.0 °F 84% 30.00 in 9.0 mi ESE 5.8 mph - N/A   Clear
8:53 AM 73.9 °F - 62.1 °F 66% 30.00 in 10.0 mi Calm Calm - N/A   Clear
9:53 AM 79.0 °F - 57.9 °F 48% 29.99 in 10.0 mi Calm Calm - N/A   Clear
10:53 AM 82.9 °F 83.3 °F 61.0 °F 47% 29.97 in 10.0 mi ENE 6.9 mph - N/A   Clear
11:53 AM 87.1 °F 86.7 °F 60.1 °F 40% 29.94 in 10.0 mi NNE 9.2 mph - N/A   Clear
12:53 PM 93.9 °F 92.2 °F 55.9 °F 28% 29.91 in 10.0 mi ESE 9.2 mph - 0.00 in   Clear
1:53 PM 97.0 °F 95.3 °F 55.9 °F 25% 29.89 in 10.0 mi SSE 11.5 mph 18.4 mph N/A   Clear
2:53 PM 100.9 °F - 52.0 °F 19% 29.85 in 10.0 mi South 10.4 mph 17.3 mph N/A   Unknown
3:53 PM 102.0 °F - 45.0 °F 14% 29.83 in 10.0 mi SSE 10.4 mph 25.3 mph N/A   Clear
4:53 PM 100.9 °F - 44.1 °F 14% 29.81 in 10.0 mi SE 19.6 mph 26.5 mph N/A   Clear
5:53 PM 99.0 °F - 45.0 °F 16% 29.82 in 10.0 mi SSE 24.2 mph 33.4 mph N/A   Clear
6:53 PM 91.9 °F - 51.1 °F 25% 29.83 in 10.0 mi SSE 18.4 mph 29.9 mph N/A   Clear
7:53 PM 87.1 °F - 52.0 °F 30% 29.86 in 10.0 mi SE 17.3 mph - N/A   Clear
8:53 PM 82.9 °F - 52.0 °F 34% 29.88 in 10.0 mi SSE 16.1 mph 24.2 mph N/A   Clear
9:53 PM 82.0 °F - 51.1 °F 34% 29.89 in 10.0 mi South 16.1 mph - N/A   Clear
10:53 PM 80.1 °F - 52.0 °F 38% 29.89 in 10.0 mi South 18.4 mph 31.1 mph N/A   Clear
11:53 PM 79.0 °F - 54.0 °F 42% 29.89 in 10.0 mi South 19.6 mph - N/A   Clear